TimeWET,TemperatureF,Dew PointF,Humidity,Sea Level PressureIn,VisibilityMPH,Wind Direction,Wind SpeedMPH,Gust SpeedMPH,PrecipitationIn,Events,Conditions,WindDirDegrees,DateUTC
6:00 AM,51,44,71,29.95,6,South,6.9,,,,Partly Cloudy,180,2013-02-18 06:00:00
6:00 AM,50.0,44.6,82,29.95,6.2,South,6.9,-,N/A,,Partly Cloudy,180,2013-02-18 06:00:00
7:00 AM,51.8,44.6,76,29.92,6.2,SW,6.9,-,N/A,,Partly Cloudy,220,2013-02-18 07:00:00
8:00 AM,53.6,46.4,77,29.92,6.2,SE,6.9,-,N/A,,Scattered Clouds,140,2013-02-18 08:00:00
9:00 AM,59,49,60,29.94,9,SSW,4.6,,,,Scattered Clouds,200,2013-02-18 09:00:00
9:00 AM,59.0,48.2,67,29.92,6.2,SSW,4.6,-,N/A,,Mostly Cloudy,200,2013-02-18 09:00:00
10:00 AM,64.4,50.0,59,29.92,6.2,WSW,4.6,-,N/A,,Mostly Cloudy,240,2013-02-18 10:00:00
11:00 AM,66.2,50.0,56,29.92,6.2,NW,2.3,-,N/A,,Mostly Cloudy,320,2013-02-18 11:00:00
12:00 PM,68,52,46,29.90,9,NNW,2.3,,,,Scattered Clouds,340,2013-02-18 12:00:00
12:00 PM,68.0,51.8,56,29.89,6.2,NNW,2.3,-,N/A,,Mostly Cloudy,340,2013-02-18 12:00:00
1:00 PM,71.6,53.6,53,29.83,6.2,NNE,9.2,-,N/A,,Mostly Cloudy,20,2013-02-18 13:00:00
2:00 PM,69.8,51.8,53,29.83,6.2,West,11.5,-,N/A,,Mostly Cloudy,260,2013-02-18 14:00:00
3:00 PM,69,51,41,29.81,9,ENE,13.8,,,,Scattered Clouds,60,2013-02-18 15:00:00
3:00 PM,69.8,50.0,49,29.80,-9999.0,ENE,13.8,-,N/A,,Clear,60,2013-02-18 15:00:00
4:00 PM,68.0,51.8,56,29.80,-9999.0,ENE,9.2,-,N/A,,Clear,60,2013-02-18 16:00:00
5:00 PM,66.2,51.8,60,29.77,-9999.0,NNE,6.9,-,N/A,,Clear,20,2013-02-18 17:00:00
6:00 PM,64,51,54,29.81,6,WSW,6.9,,,,Scattered Clouds,240,2013-02-18 18:00:00
6:00 PM,64.4,51.8,64,29.80,-9999.0,WSW,6.9,-,N/A,,Clear,240,2013-02-18 18:00:00
7:00 PM,62.6,50.0,63,29.80,-9999.0,West,9.2,-,N/A,,Clear,280,2013-02-18 19:00:00
8:00 PM,60.8,50.0,68,29.80,-9999.0,West,4.6,-,N/A,,Clear,260,2013-02-18 20:00:00
9:00 PM,61,51,61,29.84,6,West,6.9,,,,Scattered Clouds,260,2013-02-18 21:00:00
9:00 PM,60.8,51.8,72,29.83,-9999.0,West,6.9,-,N/A,,Clear,260,2013-02-18 21:00:00